Zapata, TX

6:53 AM CDT on September 30, 2016 (GMT -0500)
Zapata

Weather History for KAPY - April, 2013

Change the Weather History Date:

Sunday, April 21, 2013

  Actual Average (KLRD) Record (KLRD)
Temperature  
Mean Temperature 74 °F 77 °F  
Max Temperature 89 °F 89 °F 102 °F (2011)
Min Temperature 58 °F 66 °F 42 °F (1907)
Degree Days  
Heating Degree Days 0 0  
Month to date heating degree days 12  
Since 1 July heating degree days 925  
Cooling Degree Days 8 12  
Month to date cooling degree days 221  
Year to date cooling degree days 479  
Growing Degree Days 24 (Base 50)    
Moisture  
Dew Point 49 °F    
Average Humidity 44    
Maximum Humidity 72    
Minimum Humidity 20    
Precipitation  
Precipitation 0.00 in 0.06 in 1.97 in (1981)
Month to date precipitation 0.88  
Year to date precipitation 3.84  
Sea Level Pressure  
Sea Level Pressure 30.00 in    
Wind  
Wind Speed 9 mph (SE)    
Max Wind Speed 20 mph    
Max Gust Speed 28 mph    
Visibility 10 miles    
Events      
T = Trace of Precipitation, MM = Missing Value Source: NWS Daily Summary

Daily Weather History Graph

Daily Weather History Graph

Search for Another Location

Airport or City:

Trip Planner

Search our weather history database for the weather conditions in past years. The results will help you decide how hot, cold, wet, or windy it might be!

Date:

Astronomy

Apr. 21, 2013 Rise Set
Actual Time 7:06 AM CDT 8:04 PM CDT
Civil Twilight 6:42 AM CDT 8:28 PM CDT
Nautical Twilight 6:14 AM CDT 8:57 PM CDT
Astronomical Twilight 5:45 AM CDT 9:26 PM CDT
Moon 4:13 PM CDT (4/21) 4:05 AM CDT (4/21)
Length of Visible Light 13h 45m
Length of Day
12h 57m
Waxing Gibbous, 80% of the Moon is Illuminated
Apr 21
Waxing Gibbous
Apr 25
Full
May 2
Last Quarter
May 9
New
May 17
First Quarter

Hourly Weather History & Observations

Time (CDT) Temp. Dew Point Humidity Pressure Visibility Wind Dir Wind Speed Gust Speed Precip Events Conditions
12:15 AM 64.6 °F 44.8 °F 49% 30.01 in 10.0 mi SE 13.8 mph 19.6 mph N/A   Clear
12:35 AM 64.4 °F 45.3 °F 50% 30.00 in 10.0 mi SE 12.7 mph 20.7 mph N/A   Clear
12:55 AM 63.9 °F 46.2 °F 53% 29.99 in 10.0 mi SE 15.0 mph 21.9 mph N/A   Clear
1:15 AM 63.5 °F 46.8 °F 54% 29.99 in 10.0 mi SE 13.8 mph 19.6 mph N/A   Clear
1:35 AM 63.0 °F 47.3 °F 57% 29.99 in 10.0 mi SE 11.5 mph 17.3 mph N/A   Clear
4:15 AM 60.8 °F 49.5 °F 66% 29.99 in 10.0 mi East 6.9 mph - N/A   Clear
4:35 AM 60.3 °F 49.5 °F 68% 30.00 in 10.0 mi ESE 5.8 mph - N/A   Clear
4:55 AM 60.1 °F 49.8 °F 69% 30.00 in 10.0 mi ESE 6.9 mph - N/A   Clear
5:15 AM 59.4 °F 49.3 °F 69% 30.00 in 10.0 mi Calm Calm - N/A   Scattered Clouds
5:35 AM 59.5 °F 49.3 °F 69% 30.00 in 10.0 mi East 6.9 mph - N/A   Overcast
5:55 AM 59.9 °F 49.1 °F 67% 30.00 in 10.0 mi East 5.8 mph - N/A   Overcast
6:15 AM 59.0 °F 49.1 °F 70% 30.01 in 10.0 mi East 4.6 mph - N/A   Mostly Cloudy
6:35 AM 58.5 °F 49.1 °F 71% 30.01 in 10.0 mi ESE 3.5 mph - N/A   Mostly Cloudy
6:55 AM 58.1 °F 49.1 °F 72% 30.02 in 10.0 mi Calm Calm - N/A   Mostly Cloudy
7:15 AM 58.1 °F 49.1 °F 72% 30.03 in 10.0 mi Calm Calm - N/A   Mostly Cloudy
7:35 AM 58.3 °F 49.3 °F 72% 30.04 in 10.0 mi Calm Calm - N/A   Mostly Cloudy
7:55 AM 59.4 °F 50.0 °F 71% 30.05 in 10.0 mi Calm Calm - N/A   Scattered Clouds
8:15 AM 61.9 °F 51.1 °F 68% 30.06 in 10.0 mi East 5.8 mph - N/A   Mostly Cloudy
8:35 AM 63.7 °F 52.0 °F 66% 30.06 in 10.0 mi East 9.2 mph - N/A   Overcast
8:55 AM 64.8 °F 52.5 °F 64% 30.07 in 10.0 mi ESE 9.2 mph - N/A   Overcast
9:15 AM 67.1 °F 53.4 °F 61% 30.07 in 10.0 mi SE 8.1 mph - N/A   Mostly Cloudy
9:35 AM 69.4 °F 53.8 °F 57% 30.07 in 10.0 mi SSE 10.4 mph - N/A   Mostly Cloudy
9:55 AM 70.7 °F 54.0 °F 55% 30.07 in 10.0 mi SE 12.7 mph 18.4 mph N/A   Mostly Cloudy
10:15 AM 71.6 °F 53.6 °F 53% 30.08 in 10.0 mi SSE 12.7 mph 18.4 mph N/A   Mostly Cloudy
10:35 AM 72.3 °F 52.2 °F 49% 30.07 in 10.0 mi SSE 10.4 mph 17.3 mph N/A   Mostly Cloudy
10:55 AM 74.1 °F 52.2 °F 46% 30.08 in 10.0 mi SSE 5.8 mph - N/A   Mostly Cloudy
11:15 AM 74.1 °F 52.0 °F 46% 30.08 in 10.0 mi SSE 10.4 mph 17.3 mph N/A   Scattered Clouds
11:35 AM 75.7 °F 51.3 °F 42% 30.07 in 10.0 mi ESE 8.1 mph 17.3 mph N/A   Clear
11:55 AM 75.7 °F 50.9 °F 42% 30.07 in 10.0 mi ESE 6.9 mph - N/A   Clear
12:15 PM 78.3 °F 50.5 °F 38% 30.06 in 10.0 mi SSE 8.1 mph - N/A   Clear
12:35 PM 79.2 °F 49.5 °F 35% 30.05 in 10.0 mi SE 10.4 mph - N/A   Clear
12:55 PM 80.2 °F 48.6 °F 33% 30.04 in 10.0 mi ESE 9.2 mph - N/A   Clear
1:15 PM 81.9 °F 46.8 °F 29% 30.03 in 10.0 mi SSE 8.1 mph 17.3 mph N/A   Clear
1:35 PM 82.4 °F 46.6 °F 28% 30.02 in 10.0 mi SE 3.5 mph - N/A   Clear
1:55 PM 83.3 °F 46.0 °F 27% 30.01 in 10.0 mi SE 11.5 mph 17.3 mph N/A   Clear
2:15 PM 85.3 °F 45.5 °F 25% 30.00 in 10.0 mi SSE 8.1 mph 16.1 mph N/A   Clear
2:35 PM 85.3 °F 45.9 °F 25% 29.99 in 10.0 mi SSE 11.5 mph 17.3 mph N/A   Clear
2:55 PM 86.4 °F 46.4 °F 25% 29.98 in 10.0 mi SE 8.1 mph 18.4 mph N/A   Clear
3:15 PM 87.1 °F 46.4 °F 24% 29.97 in 10.0 mi South 6.9 mph - N/A   Clear
3:35 PM 87.6 °F 44.8 °F 22% 29.96 in 10.0 mi SSE 9.2 mph - N/A   Clear
3:55 PM 88.3 °F 44.2 °F 21% 29.96 in 10.0 mi SSE 6.9 mph - N/A   Clear
4:15 PM 87.6 °F 45.0 °F 23% 29.94 in 10.0 mi Calm Calm - N/A   Clear
4:35 PM 88.9 °F 44.1 °F 21% 29.93 in 10.0 mi South 6.9 mph - N/A   Clear
4:55 PM 89.1 °F 43.2 °F 20% 29.93 in 10.0 mi SE 10.4 mph 16.1 mph N/A   Clear
5:15 PM 89.6 °F 44.1 °F 20% 29.93 in 10.0 mi ESE 6.9 mph - N/A   Clear
5:35 PM 89.1 °F 44.1 °F 21% 29.92 in 10.0 mi SSE 11.5 mph 16.1 mph N/A   Clear
5:55 PM 88.5 °F 43.2 °F 20% 29.92 in 10.0 mi SE 10.4 mph 19.6 mph N/A   Clear
6:15 PM 87.6 °F 42.8 °F 21% 29.93 in 10.0 mi SE 6.9 mph - N/A   Clear
6:35 PM 87.8 °F 42.8 °F 21% 29.93 in 10.0 mi SE 8.1 mph - N/A   Clear
6:55 PM 86.9 °F 42.8 °F 21% 29.93 in 10.0 mi SE 9.2 mph 17.3 mph N/A   Clear
7:15 PM 86.4 °F 42.1 °F 21% 29.93 in 10.0 mi SE 10.4 mph - N/A   Clear
7:35 PM 85.3 °F 42.6 °F 22% 29.94 in 10.0 mi SE 11.5 mph 16.1 mph N/A   Clear
7:55 PM 84.2 °F 43.7 °F 24% 29.94 in 10.0 mi SE 9.2 mph - N/A   Clear
8:15 PM 83.3 °F 44.1 °F 25% 29.95 in 10.0 mi ESE 8.1 mph - N/A   Clear
8:35 PM 81.9 °F 44.2 °F 27% 29.95 in 10.0 mi SE 5.8 mph - N/A   Clear
8:55 PM 81.0 °F 44.6 °F 28% 29.96 in 10.0 mi ESE 5.8 mph - N/A   Clear
9:15 PM 79.5 °F 49.6 °F 35% 29.97 in 10.0 mi North - - N/A   Clear
9:35 PM 77.2 °F 54.7 °F 46% 29.98 in 10.0 mi East 19.6 mph 27.6 mph N/A   Clear
9:55 PM 75.4 °F 55.6 °F 50% 29.99 in 10.0 mi East 17.3 mph 25.3 mph N/A   Clear
10:15 PM 74.3 °F 55.8 °F 52% 30.00 in 10.0 mi East 13.8 mph 23.0 mph N/A   Clear
10:55 PM 71.6 °F 56.7 °F 59% 30.02 in 10.0 mi ESE 18.4 mph 26.5 mph N/A   Clear
11:15 PM 70.7 °F 56.8 °F 61% 30.02 in 10.0 mi ESE 18.4 mph 23.0 mph N/A   Clear
11:35 PM 70.0 °F 57.2 °F 64% 30.02 in 10.0 mi ESE 13.8 mph 24.2 mph N/A   Clear
11:55 PM 69.8 °F 57.4 °F 65% 30.03 in 10.0 mi ESE 13.8 mph 23.0 mph N/A   Clear